Location: Asheville, NC
(35.6000°N, 82.5500°W)
Time: 18:25:42
(UTC-04:00)

Vanguard 1 - Pass Details

Date: 16 December 2017
Orbit: 650 x 3833 km, 34.2° (Epoch: 19 July)

Event Time Altitude Azimuth Distance (km) Brightness Sun altitude
Rises 08:57:47 0° 242° (WSW) 7,892 14.5 13.2°
Reaches altitude 10° 09:03:08 10° 241° (WSW) 6,929 14.2 14.0°
Maximum altitude 09:26:24 73° 162° (SSE) 3,335 13.3 17.4°
Drops below altitude 10° 09:41:33 10° 81° (E) 4,807 14.1 19.4°
Sets 09:44:30 0° 79° (E) 5,477 14.3 19.8°
